Torna al catalogo

CZ-4 DEB

AttivoSSO
NORAD 26137·DEBRIS·🇨🇳 China

Lanciato Oct 14, 1999 da Taiyuan Satellite Launch Center

Loading…

Prossimi Passaggi (prossime 24 ore)

TLE

AggiornatoSource: Space-Track

Epoca: Sep 13, 2026, 22:22 UTC

1 26137U 99057Z   26256.93238921  .00002742  00000-0  10362-2 0  9996
2 26137  98.9407  19.6441 0289078 161.6837 313.0910 14.11557887348918

Traccia CZ-4 DEB in tempo reale con AllMySat

Download on the App Store